RH
33 32 31 31 29 27 27 23 23 24 28 29 27 29 29 34 60 92 102 95 97 101 102 106 99 97 101 97 101 106 107 107 100 99 101 100 100 101 99 96 98 100 100 101 100 100 100 99 100 100 100 100 100 100 100 100 100 100 99 99 100 100 101 102 100 97 96 99 98 95 100 105 103 100 100 98 87 68 62 81 88 70 47 34 33
44 40 35 33 31 31 31 30 29 33 40 38 34 34 28 45 80 98 102 100 100 99 99 102 97 96 94 85 95 107 106 105 100 98 100 102 102 97 94 95 100 101 99 101 100 99 100 99 100 99 100 101 100 100 100 100 100 100 100 99 101 101 100 102 97 91 92 96 95 95 102 104 102 103 100 96 87 68 67 85 81 58 42 34 34
59 53 45 42 40 39 39 40 40 45 53 48 42 38 34 61 90 89 95 104 103 100 99 101 99 93 76 65 87 105 102 101 100 99 100 101 103 97 87 86 97 101 99 100 100 99 100 100 100 100 101 100 99 100 99 100 101 100 99 100 101 100 101 101 93 91 95 96 96 101 105 101 100 104 101 98 87 66 69 81 66 44 37 35 35
60 56 54 54 53 52 50 49 49 52 59 52 44 40 38 68 90 79 86 105 107 103 98 95 96 88 63 59 91 103 98 103 100 99 101 100 101 100 93 89 96 101 99 100 99 99 99 99 100 100 101 101 99 101 100 100 100 98 100 101 100 101 102 100 96 98 101 97 97 101 102 102 102 100 100 98 79 62 71 75 53 36 35 33 34
58 56 57 60 59 56 53 51 49 48 52 47 40 37 35 60 90 85 82 101 109 104 97 91 91 86 56 54 94 105 95 103 103 98 101 101 101 101 99 98 100 100 99 100 100 101 102 102 101 97 98 101 100 100 99 100 101 99 99 100 102 104 102 100 100 101 103 100 100 101 100 102 103 100 98 89 68 64 76 70 48 35 33 32 35
58 56 55 54 52 50 47 45 44 40 40 37 32 33 29 40 79 91 82 96 109 102 98 94 95 101 76 57 85 104 99 101 102 100 100 100 100 99 101 101 101 101 101 101 99 97 95 96 100 100 99 100 100 101 100 99 100 100 100 101 103 103 100 100 100 102 104 98 95 100 102 100 101 102 92 73 65 74 79 65 46 35 31 32 36
50 49 46 43 41 41 38 35 34 32 31 31 26 28 26 25 49 72 79 97 109 101 99 100 99 107 103 83 82 94 100 100 99 100 100 100 100 99 101 101 100 99 97 98 96 88 84 88 97 101 100 100 101 103 101 99 101 103 103 104 103 100 99 100 100 100 98 93 93 97 101 100 100 99 84 68 75 84 76 59 44 33 30 32 37
43 41 36 33 31 30 30 28 27 27 25 25 23 22 23 21 26 43 70 99 107 101 99 103 99 95 101 103 97 94 95 98 100 101 100 100 100 99 100 100 100 98 95 99 99 90 87 93 98 100 101 99 96 99 99 95 96 97 94 97 100 100 100 100 100 94 83 87 99 98 98 101 100 94 81 77 87 84 66 52 40 30 28 32 37
36 33 29 28 26 24 26 26 25 25 22 22 22 21 20 19 19 32 70 100 104 103 101 101 102 94 94 104 107 101 95 95 94 95 99 102 103 102 99 100 100 99 99 100 101 96 92 97 101 103 103 98 94 98 100 95 93 92 90 95 100 100 102 99 96 91 80 86 100 100 100 103 101 92 82 84 88 75 57 46 36 29 27 30 37
27 27 26 25 23 22 24 24 24 23 21 21 20 19 18 17 17 33 74 101 97 99 104 102 98 93 94 100 101 99 98 98 87 78 83 91 101 104 100 101 99 98 102 100 99 100 98 100 104 104 101 99 99 100 99 99 98 97 98 100 101 101 100 91 84 87 90 94 99 102 103 102 99 92 83 85 81 66 52 42 34 28 27 29 35
23 24 22 21 20 20 20 20 26 23 19 23 21 19 17 15 24 46 80 100 95 98 105 102 93 88 96 103 100 96 98 100 92 76 65 68 91 104 101 104 101 98 103 101 99 101 100 101 101 100 98 98 101 99 98 100 100 100 101 100 101 100 93 86 85 91 97 100 101 103 102 99 97 91 84 81 72 60 50 39 32 28 26 29 32
21 21 20 21 17 17 18 19 25 23 22 25 21 22 20 21 50 81 97 100 98 103 106 101 97 96 99 102 101 100 98 99 99 87 65 54 74 94 98 105 104 100 101 100 100 100 100 103 101 99 99 98 101 101 100 100 100 100 100 100 101 99 95 94 96 98 100 100 101 104 101 96 95 88 80 76 67 58 49 38 33 29 26 28 30
22 22 21 21 16 19 19 17 27 32 37 40 33 36 35 41 75 97 98 100 101 104 104 99 100 102 100 98 101 102 98 99 99 92 78 59 57 69 82 97 104 103 101 99 100 100 99 102 102 100 100 100 101 101 100 100 101 102 101 100 99 99 100 99 99 100 101 102 102 101 96 94 93 83 74 70 63 55 48 40 35 30 27 27 30
24 23 23 21 20 22 16 21 39 43 56 77 74 67 66 73 95 99 94 100 103 103 103 99 101 104 102 102 104 102 97 100 100 97 95 81 62 54 57 71 88 100 105 102 100 102 102 102 102 101 100 101 102 101 100 98 98 101 101 101 101 100 100 100 100 102 103 103 101 95 90 90 87 76 69 66 60 54 49 43 37 30 27 28 31
24 25 24 21 21 20 19 40 57 48 68 103 98 87 91 95 102 102 100 102 100 98 99 99 102 103 102 102 102 101 99 100 98 98 100 96 88 76 59 53 59 73 91 100 100 102 104 102 102 100 99 100 102 100 98 97 97 98 97 99 101 100 100 100 101 101 102 102 97 90 85 82 76 71 68 65 59 55 50 45 38 31 28 30 34
27 28 28 29 29 20 26 58 70 60 83 108 94 88 101 102 99 101 102 101 98 96 96 100 103 101 100 101 100 100 102 98 94 98 100 92 93 97 89 74 60 55 61 71 79 86 93 97 97 97 99 101 101 97 94 98 101 98 97 99 100 100 100 100 101 101 100 99 95 89 81 73 71 71 68 64 60 56 51 46 39 31 30 37 43
40 39 38 40 36 22 35 74 85 82 98 106 95 95 101 100 100 101 99 98 96 96 99 103 102 97 95 97 99 100 102 101 97 100 101 91 84 91 99 97 90 80 69 61 60 63 68 78 83 86 90 95 99 101 99 100 102 101 100 100 99 100 100 100 101 101 100 97 94 86 74 69 72 72 68 64 61 57 51 44 37 32 37 47 56
62 65 60 55 52 46 65 95 98 94 102 102 100 100 99 100 104 102 99 99 97 96 100 101 99 98 94 95 99 98 100 102 99 100 102 96 91 90 94 99 102 101 94 85 79 70 62 60 63 67 69 71 79 89 94 94 95 97 98 100 101 102 102 101 100 100 98 95 88 77 70 71 73 70 66 65 63 56 48 40 35 35 42 55 65
72 83 76 71 79 82 93 105 99 96 100 100 102 101 99 102 106 105 99 99 99 99 101 101 100 101 100 98 99 98 100 100 99 104 103 96 97 97 95 97 100 101 102 101 96 89 79 69 63 65 68 69 73 81 88 90 91 93 96 99 102 102 102 101 99 96 91 84 77 73 74 74 69 67 67 66 61 50 41 37 35 38 48 61 72
70 87 84 83 96 97 99 103 100 99 99 100 102 101 100 102 104 105 101 98 101 101 101 102 101 100 101 101 99 97 100 100 99 104 103 95 98 103 98 95 98 101 101 100 93 86 86 87 86 86 90 93 93 93 94 91 89 93 98 100 101 100 99 97 92 84 77 72 71 75 75 67 62 65 65 60 52 43 37 37 38 44 56 66 74
79 98 98 97 102 99 100 101 99 101 101 101 101 98 100 102 101 102 100 100 102 100 101 103 100 97 98 99 98 97 100 101 99 100 102 98 98 103 102 98 99 98 90 87 86 81 78 84 93 97 100 102 100 98 94 84 76 80 88 92 92 90 86 81 76 71 70 73 76 75 66 57 57 59 56 50 44 39 37 37 40 47 56 62 66
95 108 108 106 104 100 100 100 100 102 100 97 98 99 101 100 99 101 100 100 102 101 101 102 97 95 99 99 97 98 99 101 100 99 101 100 99 102 103 99 99 100 89 79 78 82 82 82 86 92 96 98 98 94 87 76 68 71 77 79 77 76 74 73 74 76 78 79 74 64 56 53 52 49 46 44 41 37 35 36 39 43 48 52 60
102 107 108 107 104 101 100 99 101 102 98 96 99 102 102 100 100 101 100 100 102 101 101 100 96 96 101 101 98 99 99 99 100 100 100 101 101 102 103 100 99 102 96 80 70 77 88 89 88 89 87 84 81 77 71 68 69 76 85 88 84 82 81 81 83 82 79 73 63 55 52 50 45 42 44 43 39 36 34 35 37 39 43 51 66
102 101 102 104 102 100 101 101 102 101 99 99 101 101 101 101 101 99 99 100 100 101 102 102 101 100 101 101 101 100 100 100 100 100 101 102 101 101 102 101 100 101 101 91 77 74 79 84 88 91 90 86 82 80 83 87 88 94 102 101 93 87 88 88 86 82 74 65 57 52 49 43 41 43 45 42 36 34 34 35 37 38 44 57 77
97 100 100 102 97 95 100 102 101 101 100 100 100 100 100 100 100 98 99 100 99 99 100 99 98 96 94 98 102 101 99 100 100 100 101 101 100 100 101 101 100 100 101 99 90 82 82 87 92 95 96 98 98 99 102 103 101 100 100 96 92 92 95 92 84 76 68 60 55 50 43 39 43 46 44 38 34 32 32 33 34 36 40 51 72
87 95 95 92 85 86 98 103 101 99 100 100 99 99 100 100 100 100 99 100 99 98 97 95 94 95 96 100 103 101 98 98 99 100 102 102 101 100 100 100 101 100 100 101 98 96 95 96 97 98 98 99 101 102 103 102 99 97 96 96 98 97 92 84 76 71 66 60 54 47 42 43 46 45 39 34 32 32 32 31 31 32 35 40 52
85 92 92 87 77 76 92 102 101 99 99 99 99 100 101 100 100 101 99 98 99 100 101 100 99 100 100 101 102 101 98 98 99 100 101 102 102 100 99 100 101 100 100 100 100 100 100 99 99 100 99 99 99 100 100 100 100 99 99 98 94 87 81 77 74 70 64 56 51 47 46 48 46 41 36 34 33 34 34 32 31 32 33 35 40
93 97 98 96 86 82 94 102 102 101 100 100 100 100 100 100 98 99 98 99 102 104 102 99 99 99 98 98 101 101 99 99 99 99 100 101 101 101 100 100 101 100 100 100 100 100 100 100 100 100 99 100 100 100 101 101 101 100 98 93 88 80 76 73 67 60 56 53 51 50 49 48 44 41 38 37 37 36 35 35 36 35 36 37 38
98 100 101 103 100 96 101 104 103 102 100 100 101 100 100 100 99 99 99 102 106 105 100 97 98 98 97 98 101 101 99 99 97 98 100 101 100 99 100 101 101 100 99 99 100 101 100 100 100 101 99 98 97 97 97 96 95 96 97 97 92 83 75 69 64 60 58 56 54 53 51 49 48 46 46 45 43 40 39 40 41 41 41 41 40
100 101 101 103 103 101 101 101 101 101 100 100 100 100 101 100 99 100 101 103 104 100 95 96 98 98 98 100 102 101 99 99 98 98 101 103 101 98 98 100 100 100 100 99 99 100 101 101 101 99 93 86 84 84 84 84 87 92 98 99 93 84 76 71 67 63 60 57 57 57 55 55 55 55 56 54 50 46 45 46 47 46 45 44 45
99 100 102 102 101 101 100 99 99 100 99 100 100 99 101 101 99 99 101 103 102 97 95 97 99 99 99 100 102 100 97 99 99 98 100 103 102 99 98 98 98 100 100 99 100 100 100 101 101 99 94 87 81 78 76 79 85 90 93 91 86 81 77 72 67 64 61 60 59 59 60 62 63 64 64 61 57 55 54 55 55 53 52 52 51
101 96 97 102 102 100 100 100 99 100 99 100 100 99 100 100 99 99 100 101 100 97 97 99 99 98 99 100 101 99 97 100 100 98 100 102 101 101 99 95 94 97 99 99 100 100 100 100 100 100 100 98 94 90 85 82 82 83 83 81 78 77 76 74 71 67 66 66 65 66 69 71 71 72 72 69 65 65 65 65 64 62 62 61 57
102 95 92 100 104 101 100 100 99 100 100 99 100 100 99 100 100 100 100 99 98 97 99 100 99 100 101 100 100 99 99 100 100 100 100 100 100 101 101 97 90 87 93 99 101 100 99 99 100 100 100 100 100 100 97 90 83 78 76 75 75 75 76 76 74 74 75 76 74 74 76 79 81 82 81 77 75 76 75 75 75 75 72 66 59
90 90 92 101 104 100 100 101 100 100 100 100 100 100 99 100 100 100 100 99 98 97 99 100 99 100 101 100 99 100 101 101 101 101 101 100 100 100 102 102 91 79 78 84 92 98 100 99 99 99 99 100 100 100 100 97 92 87 83 81 79 76 76 78 81 86 87 86 83 82 83 88 91 91 89 86 84 83 83 84 86 84 76 66 60
76 80 88 98 101 99 100 100 99 100 100 100 100 100 100 100 100 101 101 100 99 99 99 100 100 101 101 100 100 100 100 101 101 100 100 100 100 100 100 102 97 89 83 79 80 89 96 98 100 99 99 100 100 100 100 100 100 98 96 95 91 81 78 84 93 98 98 97 96 94 92 91 91 92 92 91 90 92 94 93 88 80 72 65 62
72 75 83 92 96 98 99 99 99 100 100 99 99 99 99 100 101 102 102 101 100 99 99 100 100 100 100 99 100 101 100 101 100 99 99 100 100 100 100 100 100 99 96 93 91 91 92 94 96 96 96 98 99 99 100 99 100 100 101 103 101 93 88 91 96 98 100 100 97 93 90 89 90 94 97 97 98 98 96 88 78 72 69 65 62
77 76 79 85 90 94 95 95 97 98 99 99 98 96 96 97 99 100 102 103 101 100 99 100 100 100 100 100 100 101 100 101 100 99 100 101 100 99 99 100 100 99 98 100 100 95 89 85 85 86 87 88 90 92 94 96 97 98 99 102 103 100 97 94 94 96 98 98 95 90 87 87 91 97 100 100 98 91 82 76 73 71 70 68 69
85 84 81 82 86 89 91 92 92 92 94 96 95 91 88 88 90 94 98 102 103 101 100 100 100 100 100 100 100 100 100 101 101 100 100 100 99 99 100 100 100 100 100 101 100 95 86 77 72 71 72 74 77 80 84 89 93 96 99 103 105 106 105 102 102 103 102 101 99 96 95 97 100 99 94 90 86 81 77 77 79 80 81 84 88
83 85 84 84 83 81 83 87 87 87 88 91 92 88 82 79 81 85 90 97 102 103 101 100 100 100 100 100 100 100 100 99 100 100 101 100 99 100 101 101 100 100 100 100 101 100 94 85 73 64 59 60 63 68 73 77 81 86 90 94 97 101 103 104 106 107 105 102 101 101 103 106 104 97 90 86 84 86 88 91 93 94 96 97 98
71 75 77 80 80 77 75 77 80 83 84 85 88 86 78 73 73 76 80 87 96 103 103 100 99 99 100 100 100 100 100 100 100 100 100 99 100 101 101 101 101 100 100 100 100 100 99 97 91 83 75 69 66 64 64 66 70 75 78 82 87 93 99 103 105 106 105 103 101 100 100 100 97 94 92 93 94 96 98 99 99 100 100 100 100
54 61 65 66 69 70 69 68 70 75 77 77 77 77 73 68 67 68 71 76 86 98 105 103 100 99 100 100 100 100 100 100 100 100 100 100 100 101 101 100 100 100 100 100 100 100 100 100 99 99 96 92 87 81 75 71 70 72 75 79 85 92 99 104 107 108 107 104 102 100 98 96 97 97 98 99 99 100 100 99 99 100 100 101 101
48 50 55 58 59 61 63 64 62 64 69 70 68 67 67 63 62 62 64 67 76 89 102 105 101 99 100 100 100 100 100 100 100 100 100 100 101 101 100 100 100 100 100 100 99 100 101 100 100 101 101 100 99 97 95 91 88 87 87 89 93 97 101 104 105 104 103 102 102 101 100 100 101 100 100 100 100 100 99 100 100 100 101 101 102
65 56 54 56 60 64 66 65 61 58 61 64 63 62 61 59 57 57 58 62 66 75 87 97 99 99 100 100 100 100 99 100 100 100 100 101 101 101 101 100 100 99 100 101 100 100 100 100 100 100 100 100 101 100 100 100 98 97 98 98 98 98 98 97 98 98 98 100 101 102 102 101 101 100 100 101 101 101 100 101 101 101 101 102 102
78 75 69 63 63 66 66 65 64 63 60 60 60 58 57 56 55 54 55 58 59 61 67 77 86 93 98 100 100 100 100 100 100 100 100 101 101 101 101 101 101 100 100 100 100 100 100 101 101 100 100 100 101 101 101 100 100 100 100 99 97 95 94 95 97 99 100 100 100 101 100 100 101 102 102 101 102 101 101 101 101 100 100 100 100
80 81 83 81 76 70 64 62 65 67 63 59 59 58 56 55 55 54 54 56 58 57 58 60 65 75 87 95 99 99 99 100 101 100 99 100 101 101 101 101 100 100 100 101 100 100 100 100 100 100 100 100 100 100 100 100 100 100 100 99 98 97 98 99 100 100 100 100 99 100 100 100 101 101 100 100 101 100 100 100 100 100 101 102 102
89 83 83 88 86 75 67 64 66 67 64 60 59 60 60 60 61 59 58 58 58 58 57 56 55 57 65 78 92 100 100 99 100 101 101 100 100 101 102 104 104 102 101 100 100 100 100 100 100 100 100 100 100 100 100 100 100 100 100 100 100 100 100 100 100 100 100 100 100 100 99 100 100 100 100 101 100 100 100 101 101 102 102 101 102
97 91 85 89 90 81 73 68 66 66 65 62 57 57 59 63 65 66 66 66 65 62 59 57 55 52 51 58 72 87 96 99 100 101 101 101 101 101 101 103 105 104 103 102 101 100 100 100 101 100 100 100 99 99 100 100 100 100 100 100 100 100 100 100 100 100 100 100 100 100 100 100 100 100 100 100 100 101 101 101 101 101 101 102 103
99 99 95 93 92 86 80 74 70 67 66 65 60 55 53 57 62 66 67 67 68 68 66 63 59 55 50 48 51 60 72 85 95 103 104 101 99 100 101 102 103 103 104 104 104 103 102 101 101 100 100 100 100 100 100 100 100 100 100 100 100 100 100 100 100 100 100 100 100 100 100 100 100 100 100 100 100 100 99 100 101 102 103 103 101
102 105 103 98 92 87 84 82 78 72 68 68 66 59 52 51 54 59 62 63 65 69 71 70 67 62 56 51 47 46 49 58 73 91 103 105 102 100 100 99 100 102 103 104 103 102 102 103 102 102 101 100 100 100 100 100 100 100 100 100 100 100 100 100 100 100 100 100 100 100 100 100 100 101 100 99 99 100 101 103 104 102 99 95 91
104 106 107 102 95 91 90 89 86 78 72 71 70 65 58 52 51 53 56 58 60 64 68 70 71 71 67 59 51 47 44 43 48 61 76 89 97 102 103 102 102 102 103 103 103 101 101 102 103 103 103 103 102 102 102 102 101 100 100 101 100 100 100 100 100 100 100 100 100 100 100 100 100 100 100 102 105 107 105 102 98 94 91 91 90
105 106 108 103 95 92 91 91 91 85 77 73 71 68 64 58 53 52 53 54 56 60 65 68 69 72 73 69 61 54 49 45 43 43 47 56 66 76 86 94 102 106 105 103 102 100 100 102 104 105 105 106 105 103 103 106 106 103 101 100 100 100 100 100 99 99 100 100 101 101 101 102 103 104 105 107 107 104 100 95 92 91 91 91 89
Wind_Speed
52 50 50 49 49 48 48 48 47 44 42 41 39 37 37 36 31 27 27 27 28 30 33 35 36 38 39 35 32 33 36 38 38 37 37 37 37 36 35 33 33 34 35 35 34 33 33 34 35 37 38 36 35 33 32 33 35 35 34 35 36 38 40 40 40 42 42 42 44 46 45 45 45 45 48 50 51 55 59 59 57 54 48 42 36
51 50 48 48 47 46 46 46 44 42 41 41 38 36 37 35 29 28 29 30 31 30 31 35 38 41 41 38 36 34 33 35 36 37 37 37 37 35 34 34 34 36 37 36 35 33 33 34 35 36 35 34 35 34 33 33 36 37 37 37 38 40 42 42 42 43 43 44 45 46 46 45 45 47 48 51 53 56 59 58 55 51 47 41 36
49 48 47 47 47 45 44 44 42 40 40 41 38 36 37 36 32 31 31 32 35 35 33 35 38 40 40 39 39 38 34 34 36 36 34 33 33 32 32 33 33 35 37 37 36 34 33 33 34 35 35 36 36 35 35 35 36 38 39 38 38 40 42 43 42 42 44 45 44 45 46 46 46 48 50 51 54 57 59 57 53 50 46 41 37
49 47 46 46 46 45 44 44 42 40 41 42 40 38 39 39 36 34 33 31 34 37 34 34 36 36 38 38 39 39 38 36 36 35 32 30 31 29 29 31 33 36 38 38 37 35 33 33 35 36 37 38 38 37 36 37 38 39 39 38 39 40 42 43 43 44 45 45 44 44 45 46 48 50 51 52 54 58 58 55 53 49 45 41 37
50 48 48 47 47 46 46 46 45 42 43 45 43 42 42 43 40 37 37 32 31 36 34 32 33 31 33 38 39 39 39 39 37 35 33 31 31 30 30 32 34 36 38 38 38 36 35 35 36 37 37 38 37 37 37 37 39 40 39 39 39 40 41 43 43 44 45 45 45 46 47 48 49 51 53 54 56 59 57 54 53 50 45 41 37
51 51 51 49 48 49 49 49 48 46 46 47 46 45 44 46 45 41 40 35 31 35 33 30 31 29 28 34 40 40 37 38 39 37 35 33 32 33 33 34 35 36 38 38 39 39 39 38 37 37 37 37 37 37 38 39 40 40 40 39 40 40 41 43 44 45 46 48 49 49 49 49 51 52 54 57 59 59 56 54 54 50 45 41 38
53 53 54 53 50 51 52 51 50 48 47 48 47 47 45 45 47 44 42 37 32 33 33 30 31 30 28 30 38 42 39 38 39 39 38 35 33 33 35 38 39 40 40 40 40 40 40 39 39 39 39 38 38 39 40 41 41 41 40 40 41 42 43 45 46 47 48 50 51 51 50 51 52 53 56 59 59 57 55 54 52 49 45 41 38
56 57 56 55 52 51 52 51 51 49 47 47 46 45 44 44 45 44 43 39 33 31 32 31 31 32 31 30 34 40 42 42 42 41 40 39 36 34 35 37 38 40 41 42 41 39 40 40 39 39 40 41 42 43 43 43 42 41 41 41 43 45 46 46 47 48 49 51 51 51 50 51 52 54 58 59 57 55 54 53 51 48 45 41 38
57 58 57 55 53 50 50 50 49 47 44 43 41 40 39 40 41 42 42 40 34 29 29 29 28 29 28 27 29 32 34 40 45 45 43 41 39 38 37 36 35 37 39 41 42 42 42 42 41 41 43 44 44 43 44 43 42 41 42 43 45 47 48 47 48 50 50 50 50 50 51 53 54 56 58 56 54 54 53 51 50 48 45 42 39
54 55 55 54 52 49 48 48 46 43 39 36 34 33 33 35 38 39 39 37 31 25 23 24 24 24 23 22 24 25 26 34 42 46 46 45 44 42 42 42 38 37 39 41 42 43 43 42 42 43 43 42 41 42 43 44 44 44 45 47 49 50 51 50 51 50 49 49 49 51 53 55 56 57 56 54 54 53 52 51 50 48 45 42 40
49 51 53 51 49 47 45 45 43 39 36 34 31 30 28 29 32 34 33 31 28 23 21 24 26 25 24 22 23 24 26 31 37 42 46 47 47 47 46 48 46 43 44 45 45 45 44 43 43 43 42 42 42 42 44 45 46 47 48 50 52 53 53 52 50 48 48 49 51 53 55 56 57 57 56 55 54 53 52 51 49 47 45 43 41
46 49 50 47 45 43 40 39 38 36 34 33 31 28 26 28 30 29 29 29 31 27 23 28 32 31 29 26 25 27 28 30 34 37 40 44 47 50 51 52 52 51 51 50 49 47 46 46 46 46 46 46 46 46 45 45 46 48 50 52 53 53 52 50 48 48 49 52 55 56 57 58 58 58 57 55 54 53 51 50 48 46 45 43 41
43 46 46 42 40 38 36 35 35 33 30 28 27 25 25 33 36 31 31 35 34 28 25 32 38 35 32 28 28 32 33 34 36 36 36 40 45 49 53 54 55 56 55 54 52 50 49 49 49 50 50 50 50 49 48 48 48 48 49 51 51 50 49 49 49 51 53 56 57 58 59 60 60 59 58 56 54 52 51 49 48 46 45 43 42
40 43 42 39 37 35 34 34 34 32 28 25 24 25 27 35 38 33 32 35 32 28 30 37 39 35 31 29 31 35 35 36 38 36 34 36 41 46 52 55 56 58 59 58 56 55 54 54 53 53 54 54 53 52 51 52 53 53 52 51 51 51 51 52 53 55 57 58 59 60 61 62 61 60 57 54 52 51 50 49 48 46 45 44 42
38 39 38 36 35 34 34 34 34 32 29 27 26 28 31 35 37 33 29 29 29 31 36 38 39 37 33 31 33 36 36 35 36 36 33 32 35 40 46 52 56 58 60 62 61 60 59 58 58 58 57 57 57 57 57 57 58 59 58 58 57 57 57 58 58 59 60 60 61 62 62 61 59 57 54 52 51 50 49 48 47 46 45 43 42
36 37 35 34 34 35 35 35 33 32 32 30 29 30 34 36 35 31 27 27 29 33 40 41 41 41 37 33 34 35 35 34 35 38 37 35 34 36 40 45 51 55 58 61 62 63 64 63 62 62 61 60 60 60 60 60 60 60 62 63 63 62 62 63 62 62 62 62 63 63 61 59 56 54 52 51 50 50 49 48 46 45 44 42 41
36 36 34 33 33 36 37 36 34 34 34 33 32 32 34 36 37 34 30 29 32 36 43 45 44 43 41 38 36 35 36 36 36 37 38 40 40 39 40 42 45 48 52 55 57 59 62 63 64 64 62 60 59 59 60 62 62 63 64 65 65 65 65 64 64 63 64 65 65 64 61 57 54 52 51 50 49 49 47 46 45 43 41 40 39
35 35 33 32 34 37 38 37 35 36 38 38 37 34 32 35 39 40 38 36 37 39 42 43 43 44 43 42 40 38 39 39 39 38 36 37 38 40 42 43 44 45 46 48 50 52 55 57 59 60 59 59 59 59 61 63 64 65 65 66 66 66 66 65 65 64 65 66 65 63 59 56 53 51 50 49 48 47 46 45 43 42 40 38 38
35 36 35 34 35 37 38 37 36 37 38 38 38 36 34 36 38 41 42 40 38 40 42 41 41 42 41 41 41 40 41 41 40 40 38 35 34 36 38 39 42 44 45 45 47 48 51 53 55 56 56 57 57 58 59 61 63 65 66 67 67 66 66 65 65 65 65 65 63 59 56 53 51 50 49 47 46 45 44 43 41 40 38 37 36
36 37 37 36 36 36 37 37 38 37 36 37 38 37 37 39 40 42 43 41 40 41 42 41 40 39 39 39 39 40 41 41 38 37 37 36 33 30 33 35 36 38 42 44 47 49 50 51 53 54 55 55 55 55 55 55 56 59 62 64 65 64 64 64 64 64 63 60 57 54 52 51 49 48 47 45 43 42 42 41 40 38 37 36 35
37 37 38 40 39 39 38 38 39 38 35 36 39 40 41 41 41 43 44 43 44 44 43 42 40 38 38 38 38 39 42 42 39 37 37 38 35 30 32 35 35 37 40 42 45 48 51 53 54 54 56 57 58 58 57 56 54 55 56 58 59 59 60 61 61 59 57 54 53 52 50 49 48 46 45 42 40 39 39 39 39 37 36 35 34
37 36 39 43 43 41 40 39 40 39 36 37 40 42 43 43 42 43 43 42 44 45 44 44 43 38 35 36 36 38 41 43 41 40 40 40 39 38 38 38 38 39 41 41 43 44 47 50 53 54 56 57 58 57 57 56 54 53 53 54 55 55 56 56 55 53 52 51 51 49 48 47 46 44 42 39 37 37 37 37 37 36 35 34 33
38 37 40 43 44 42 40 40 41 41 38 39 41 41 42 44 43 42 41 39 41 41 41 44 45 41 35 34 34 35 38 41 41 42 42 42 42 43 45 46 45 44 44 43 43 42 42 43 45 48 50 51 52 52 52 52 52 51 51 51 52 52 52 51 50 49 49 48 47 46 45 45 43 41 38 36 35 35 35 35 35 35 34 33 32
39 40 41 42 43 42 39 38 41 43 42 41 41 41 42 44 44 43 40 38 39 39 39 42 44 42 38 36 35 36 38 39 39 40 42 43 44 46 47 48 48 47 47 45 43 41 41 42 42 43 44 46 47 48 49 49 49 49 49 50 50 50 49 48 47 47 46 44 43 43 42 41 39 37 35 34 34 34 33 33 34 34 33 32 31
41 41 41 42 43 41 39 39 42 46 46 45 44 43 43 44 46 45 42 40 40 39 38 38 39 39 40 40 39 38 39 40 40 40 41 42 44 48 49 48 46 45 44 44 42 42 43 43 43 44 44 44 45 46 47 47 47 47 48 48 48 47 46 46 45 44 42 41 40 40 40 38 35 33 33 34 33 32 32 32 32 31 31 30 30
41 40 41 42 44 43 40 40 44 48 50 49 47 46 45 45 47 47 43 41 41 40 39 39 36 34 37 41 42 40 40 42 43 43 44 43 44 47 50 51 49 45 42 42 42 42 43 43 43 43 43 43 44 45 45 45 45 45 45 44 44 43 43 42 41 40 39 39 39 38 37 35 33 32 33 33 31 31 31 31 30 29 29 29 29
41 40 39 41 44 45 44 43 44 49 53 53 50 47 46 48 50 50 47 44 41 40 40 40 38 35 33 36 39 39 39 41 41 42 45 47 46 46 47 50 49 46 44 44 44 43 43 43 42 42 42 42 43 43 42 42 41 41 41 40 40 39 39 39 38 38 38 37 37 35 34 32 31 31 32 32 31 31 32 31 30 30 30 29 29
39 39 39 40 43 45 46 46 47 49 53 54 52 49 48 50 52 53 52 47 41 38 37 36 37 38 36 35 35 36 37 36 35 38 43 48 50 49 48 49 49 48 47 46 46 45 45 45 44 44 44 43 42 41 40 39 39 39 39 38 37 37 36 36 37 36 35 35 34 34 33 33 33 33 33 33 34 34 34 33 32 32 32 32 32
39 39 39 41 43 44 46 48 49 51 53 54 53 51 51 52 53 53 53 49 43 37 35 34 36 39 39 37 36 37 37 35 33 35 39 45 49 50 50 50 50 50 48 47 47 47 48 48 47 47 46 45 44 43 42 41 41 40 39 38 37 36 36 36 36 36 36 36 35 35 36 36 36 35 35 36 36 37 36 35 35 34 35 36 36
39 39 40 41 43 44 46 48 51 53 54 54 54 53 52 54 55 55 55 52 45 39 34 31 31 34 36 36 35 35 34 34 33 33 36 41 45 46 48 49 49 49 48 47 48 49 50 50 50 50 49 48 47 47 47 46 45 43 42 41 40 40 40 40 40 39 39 39 39 39 38 38 38 37 37 38 39 39 39 38 38 38 38 39 40
41 40 40 41 44 45 46 48 51 53 55 55 55 54 54 54 56 58 58 56 50 43 38 33 29 29 31 33 34 34 34 33 33 34 36 41 45 45 46 48 49 49 48 47 49 51 51 51 52 52 52 51 50 50 50 49 48 46 45 44 44 45 44 44 43 43 42 42 41 41 40 40 39 39 40 41 41 41 41 41 41 41 41 42 43
42 41 40 41 44 47 47 48 50 53 55 56 56 56 56 56 57 58 58 57 53 48 44 39 34 31 31 33 35 36 36 35 35 35 37 39 42 44 46 48 49 50 49 49 51 53 53 52 52 52 52 52 51 50 50 49 49 48 47 47 47 46 46 45 45 45 44 43 43 42 41 42 42 42 43 43 44 44 43 43 43 44 44 45 46
43 43 43 43 45 48 49 49 51 53 55 57 57 58 59 58 58 59 59 58 55 51 48 45 42 39 37 36 37 39 40 40 39 39 40 40 39 40 43 46 49 50 51 51 52 55 56 55 55 53 53 52 50 49 49 48 47 47 47 47 46 46 46 46 45 45 45 45 44 44 44 45 45 45 45 46 46 46 45 45 45 46 46 47 48
45 44 45 45 46 48 49 50 51 53 55 57 58 59 60 60 59 60 61 61 59 56 52 50 49 48 46 43 43 43 44 45 44 43 43 44 44 43 44 47 49 51 54 55 55 56 57 58 58 57 55 54 52 50 49 48 47 47 47 46 46 47 46 46 45 46 46 47 47 47 46 47 47 48 48 48 48 48 47 47 47 48 49 50 50
45 45 46 46 47 48 50 51 52 53 55 56 58 59 60 60 60 60 61 62 62 60 57 54 54 54 53 53 52 50 49 49 48 48 48 48 48 48 49 50 50 51 54 56 58 58 58 58 59 59 58 57 56 54 52 51 50 49 48 48 49 49 47 46 46 47 48 49 50 50 49 50 50 50 50 49 49 48 49 49 50 51 52 53 54
44 45 45 45 46 48 50 52 53 54 55 56 57 59 60 60 61 61 62 62 62 62 60 59 59 59 58 58 58 56 54 52 51 51 50 49 48 48 49 51 51 51 51 53 56 58 59 59 59 59 60 59 59 58 57 55 54 52 51 50 51 52 50 48 49 50 51 52 52 52 52 52 51 50 50 49 49 49 51 52 53 55 56 57 57
41 43 44 44 45 46 49 53 54 55 56 56 57 58 60 61 61 62 63 63 63 63 63 62 62 63 61 60 59 59 58 55 53 52 52 52 50 48 48 49 50 49 49 51 55 59 60 61 60 60 60 60 60 60 59 57 56 55 54 53 54 54 53 53 52 52 53 54 55 55 54 53 52 51 51 50 51 53 55 56 57 58 59 59 59
40 40 41 42 43 45 47 51 54 56 56 57 58 58 59 61 61 62 63 64 65 65 65 64 64 64 64 62 60 60 60 60 58 55 55 55 53 50 49 51 51 50 50 52 56 59 61 63 63 62 61 61 60 59 58 57 56 55 55 54 54 54 54 54 54 54 54 54 55 56 55 54 54 54 54 55 56 57 59 59 59 59 59 58 57
39 39 40 40 42 44 46 48 52 55 57 58 58 59 59 60 61 61 62 64 66 67 67 66 66 65 65 64 62 60 59 60 60 59 59 59 58 56 53 54 56 56 56 56 57 59 60 62 64 64 63 63 61 60 58 58 57 57 57 57 57 57 56 56 56 56 56 56 56 56 56 57 57 58 59 60 60 60 60 60 59 59 58 57 57
40 40 41 41 42 44 46 48 50 53 56 58 59 59 60 60 62 63 62 63 65 68 69 69 68 67 67 66 65 63 61 59 59 59 60 61 62 62 60 60 61 62 62 60 60 59 60 61 63 63 63 63 63 63 62 61 60 60 60 60 60 60 59 59 59 59 59 59 59 59 60 61 61 62 61 61 61 60 60 60 60 60 61 63 66
41 42 43 44 44 45 47 49 50 52 54 57 59 60 61 61 62 63 64 64 64 67 70 71 71 70 69 69 68 67 65 62 60 59 60 63 65 66 66 66 66 66 65 64 63 62 62 61 61 61 60 60 60 60 61 61 61 61 61 61 61 61 61 61 61 61 61 61 61 62 62 62 62 62 62 62 62 62 63 64 65 67 69 72 74
44 44 44 45 46 46 47 49 51 52 53 55 57 59 60 61 62 63 65 65 65 66 69 72 73 73 71 71 71 70 69 66 63 61 61 64 66 69 70 71 70 68 67 66 65 64 63 62 62 61 61 61 60 60 60 60 61 61 61 62 62 63 63 63 64 64 64 63 64 63 63 63 64 64 65 65 66 66 67 69 71 72 74 75 77
49 48 46 46 47 48 49 50 50 50 52 54 56 57 59 60 62 63 64 65 66 67 68 71 73 75 74 73 72 72 72 70 68 65 64 65 67 69 71 73 74 73 72 70 69 67 66 66 65 65 65 65 64 64 64 64 63 63 63 64 65 66 66 67 67 67 66 66 66 66 66 66 67 68 68 69 69 70 71 72 73 74 76 77 78
53 52 51 50 50 52 51 50 49 50 51 53 54 55 57 59 61 62 63 64 65 66 67 69 72 74 76 76 75 74 74 73 72 70 68 67 68 69 70 72 74 75 76 75 74 73 72 72 71 71 70 69 69 70 70 69 69 69 69 70 70 69 69 69 69 69 68 68 68 69 69 69 70 70 70 71 71 72 73 74 76 77 79 80 82
56 56 56 55 54 55 54 52 50 52 53 53 54 54 55 57 59 61 62 62 63 64 65 67 70 73 75 77 78 78 77 76 75 74 72 71 70 70 71 71 72 73 75 76 77 78 78 78 78 77 76 75 74 74 74 74 73 73 73 72 71 70 70 69 69 69 70 70 70 71 71 71 71 72 72 73 74 76 77 79 81 83 85 88 90
58 58 58 57 55 55 55 53 52 53 55 56 56 56 55 55 56 58 60 61 62 62 63 64 67 70 73 76 78 79 80 80 79 78 77 76 74 73 73 73 72 72 73 74 76 77 78 79 80 80 79 78 77 76 76 75 74 73 73 72 71 71 70 70 70 71 71 72 73 74 74 75 76 77 78 79 81 82 84 86 88 90 92 94 95
59 60 60 59 56 55 54 54 53 53 53 55 57 58 58 57 56 57 58 59 60 61 62 62 64 66 70 74 76 79 80 81 82 82 81 80 79 78 77 76 76 75 75 75 76 76 77 77 78 79 79 79 78 78 77 77 76 75 75 74 73 73 73 73 74 74 75 76 77 78 79 80 81 82 84 85 87 88 90 91 93 95 97 99 100
58 60 61 61 60 59 58 57 56 55 54 54 55 57 59 60 59 59 60 60 60 60 61 62 63 64 67 71 74 78 80 81 83 83 84 84 84 83 81 80 80 79 79 79 79 79 79 79 79 79 79 78 78 78 78 78 78 77 77 77 76 76 77 77 78 79 80 81 82 83 84 86 87 88 90 91 92 94 96 97 99 100 101 102 103
56 59 61 62 62 62 61 60 59 57 55 55 55 56 58 60 61 61 61 61 61 61 61 61 62 64 66 69 72 75 78 81 83 84 85 86 86 86 86 85 84 84 83 83 83 83 84 84 84 83 82 81 81 81 81 81 81 81 81 81 81 81 82 83 84 84 85 86 87 88 90 91 93 94 96 97 98 99 101 102 103 103 104 104 105
55 56 59 61 62 62 62 61 60 58 56 56 55 55 56 58 60 62 63 63 62 63 64 63 63 63 65 68 70 72 75 78 81 83 85 86 87 88 88 88 88 87 87 87 86 86 87 87 87 87 87 87 87 87 87 87 87 86 86 86 87 87 88 89 90 90 90 91 92 94 95 96 98 99 100 101 102 102 103 104 104 105 105 106 106
54 55 57 58 60 61 61 60 60 59 58 57 56 55 55 56 58 60 62 64 64 64 65 66 66 65 65 66 68 70 72 75 78 80 83 85 87 88 89 90 90 89 89 89 89 88 88 88 88 88 89 90 90 91 92 92 92 93 93 93 93 94 95 95 95 95 96 96 97 99 100 101 101 102 102 103 103 104 104 105 105 106 107 107 107
Wind_Direction
274 271 269 268 267 266 265 265 265 265 264 263 261 259 255 252 250 249 250 248 247 246 240 233 233 239 241 238 238 238 239 240 240 241 243 244 240 236 236 234 235 242 242 240 240 242 244 246 248 251 253 258 263 266 268 268 265 265 268 271 275 279 282 285 290 296 301 305 309 311 310 310 312 311 313 318 321 323 325 326 325 323 320 320 316
274 272 270 268 267 265 265 265 265 264 262 261 258 255 251 245 239 238 241 246 249 247 242 237 235 240 242 237 231 229 233 239 242 243 244 243 241 238 237 237 238 241 242 242 241 241 244 248 251 253 256 262 266 265 267 268 264 265 270 273 276 280 282 285 292 296 299 303 308 309 307 307 307 307 310 314 319 322 323 323 322 319 318 318 313
272 271 271 269 268 267 265 264 263 262 260 258 256 252 247 239 230 230 240 249 251 247 243 241 241 242 243 237 228 224 226 232 238 242 244 241 238 239 239 240 240 241 242 241 241 242 246 251 254 256 260 264 265 263 266 269 267 268 272 274 277 281 284 288 292 296 298 302 305 305 304 304 304 306 308 312 317 320 321 321 319 317 317 315 310
270 270 269 268 268 267 265 263 261 259 257 256 253 249 244 237 228 226 237 249 250 245 242 243 244 244 241 233 226 225 227 230 234 238 242 240 235 236 239 242 243 242 241 240 242 244 248 254 256 260 263 265 264 264 266 268 269 272 273 275 280 283 286 289 292 296 300 302 301 299 300 300 301 304 308 312 315 317 319 319 318 316 315 312 307
271 270 268 266 265 264 263 261 258 255 253 253 251 247 242 236 231 227 232 243 247 243 242 244 246 246 240 229 223 226 229 233 236 237 238 236 234 235 236 241 243 242 241 242 244 246 251 258 261 262 264 263 263 263 265 268 271 273 273 276 281 284 285 287 292 296 298 299 297 295 296 298 300 303 308 312 313 315 316 317 316 315 313 310 304
269 268 266 263 262 261 259 257 256 253 251 251 249 245 242 235 232 229 229 236 242 241 243 245 246 249 245 232 226 227 230 235 239 239 235 233 233 234 235 239 243 244 243 244 248 251 255 261 263 260 259 260 262 264 268 270 270 271 273 276 279 280 282 286 290 292 294 296 295 294 295 297 300 303 307 310 311 313 314 315 315 313 311 308 302
267 265 264 261 259 258 258 256 255 253 251 250 248 245 242 236 232 229 226 230 236 239 245 246 244 249 253 244 235 233 234 235 239 240 237 233 232 235 237 241 245 248 249 248 250 253 255 257 257 256 255 260 266 269 271 270 268 269 272 275 276 277 279 283 287 288 291 293 293 293 293 295 299 302 307 309 310 311 312 313 313 312 310 306 300
267 265 264 263 260 258 259 259 258 256 252 251 249 246 244 238 233 227 223 226 231 237 244 246 246 253 257 256 247 241 239 237 238 239 236 233 232 234 237 242 246 249 252 252 251 251 252 252 253 255 259 265 270 271 270 268 267 268 271 272 272 274 276 280 284 287 289 289 289 289 291 294 298 302 306 309 309 310 311 312 312 311 308 304 299
267 267 266 265 264 261 261 261 260 258 255 253 251 248 244 239 233 224 219 224 230 235 243 245 250 256 256 256 251 244 243 241 239 239 237 234 231 231 233 237 243 248 249 250 248 246 247 249 254 261 266 269 271 270 268 267 266 267 267 268 270 272 274 278 283 285 287 287 285 286 290 295 299 303 307 309 309 310 310 311 311 310 307 302 297
269 268 266 263 261 259 256 254 254 253 251 248 247 244 241 238 231 219 216 224 229 234 245 244 247 253 249 247 245 236 238 244 244 242 241 238 232 230 231 230 232 239 243 245 245 244 245 249 254 261 266 269 271 271 269 268 267 267 268 269 272 274 275 279 282 283 283 282 283 287 292 297 301 305 308 309 309 309 309 309 309 308 305 301 297
269 265 262 259 256 253 250 246 244 242 237 234 232 230 228 228 224 216 217 225 227 232 249 246 245 252 247 243 242 232 231 244 249 247 243 241 236 233 233 232 228 229 234 241 244 246 247 249 252 255 258 263 268 271 270 269 269 270 272 273 275 276 277 279 280 280 279 280 284 290 295 299 304 306 308 307 307 307 307 308 307 306 303 300 297
266 262 258 256 254 250 246 242 238 234 228 224 221 215 208 202 201 208 218 224 225 229 244 247 247 252 250 247 244 237 234 242 250 251 247 243 240 237 237 237 233 230 231 237 242 245 247 249 250 250 252 257 263 268 269 270 272 273 273 274 275 276 277 278 278 276 278 283 289 293 297 301 304 306 306 305 305 305 306 306 306 304 302 298 296
261 258 254 251 249 245 240 235 231 226 221 219 215 205 196 189 185 194 211 218 220 222 230 240 244 246 250 251 246 240 238 242 250 257 256 249 243 241 241 240 238 235 234 237 241 243 245 246 248 248 250 255 260 264 267 270 273 274 274 274 274 274 274 275 275 277 281 287 292 296 300 302 303 304 304 303 303 303 304 304 304 303 299 296 294
255 252 250 247 243 236 230 225 222 218 210 206 204 196 189 187 185 191 206 212 212 213 223 235 241 241 245 249 245 243 243 244 251 259 261 258 251 246 244 243 242 240 239 240 242 243 244 246 246 248 251 256 260 261 263 267 270 272 273 275 275 274 274 275 277 282 287 291 294 298 300 300 300 301 302 301 301 302 303 303 303 301 297 295 293
248 247 245 242 237 228 221 217 214 209 199 195 197 192 183 182 189 198 204 205 204 212 225 234 239 238 239 244 245 247 248 246 249 254 257 260 259 254 250 247 246 245 244 244 245 246 247 248 249 251 254 259 262 263 264 267 268 268 270 273 275 277 278 280 282 286 289 292 295 299 299 299 299 299 299 299 299 301 302 302 302 299 295 293 292
243 242 239 235 230 221 213 209 207 200 192 191 193 189 181 179 188 196 199 202 205 217 227 231 234 234 234 238 241 243 246 245 244 248 251 255 259 260 258 253 249 248 247 247 249 250 251 252 254 256 259 262 265 266 267 268 268 268 269 272 275 278 281 283 285 287 289 292 295 297 298 299 298 297 297 298 299 300 301 301 300 296 294 292 291
236 236 232 226 219 211 205 201 199 194 188 186 184 182 180 181 185 188 191 199 209 220 228 229 232 234 232 233 236 237 239 240 241 242 246 253 258 261 262 260 256 252 250 250 251 252 253 254 256 258 261 263 264 266 267 267 268 269 271 273 276 278 281 283 285 287 289 291 294 296 297 297 296 296 296 297 298 299 300 299 297 294 293 292 291
227 228 225 216 207 202 199 195 192 189 185 183 179 176 178 181 186 191 194 201 209 218 227 230 231 234 233 233 237 237 233 233 236 237 241 250 256 259 260 261 259 256 255 254 253 254 255 255 257 259 261 262 263 264 266 268 270 271 272 274 276 278 280 282 284 286 289 291 293 294 295 295 295 295 296 297 298 299 298 297 295 294 293 292 291
221 220 217 210 202 198 195 191 189 189 188 187 182 179 181 182 187 194 197 203 209 216 226 232 232 232 233 235 239 239 233 231 234 237 241 246 251 257 259 260 260 258 257 257 257 257 257 257 258 259 261 263 264 265 267 269 270 271 272 274 277 279 281 283 285 287 289 290 291 292 293 294 294 294 295 297 297 297 296 296 295 294 294 293 292
217 215 211 206 200 195 193 190 190 193 194 192 187 184 185 184 186 191 195 201 210 218 225 231 231 230 230 234 238 237 232 231 234 236 237 240 247 254 254 256 260 261 261 262 261 260 259 259 259 259 260 262 264 266 269 271 273 273 273 275 277 280 282 284 285 286 287 288 290 291 292 293 292 293 294 295 295 295 295 295 295 294 293 292 291
216 212 208 203 197 194 194 192 193 197 199 195 190 188 189 191 193 195 196 201 210 216 221 226 227 227 229 234 237 235 231 231 233 232 228 231 240 244 244 249 257 262 264 265 265 263 261 259 259 259 260 261 263 266 269 273 275 275 275 276 278 280 281 282 284 285 286 288 290 291 291 291 291 292 293 293 293 293 294 295 294 293 292 292 292
214 211 205 200 197 196 198 198 199 202 201 196 192 192 195 199 202 202 201 204 209 215 221 224 222 221 226 232 235 234 232 231 234 233 230 232 238 242 245 250 256 260 262 264 266 268 267 263 261 261 262 262 264 266 269 272 274 275 276 277 278 279 280 281 283 285 287 288 289 289 289 289 290 291 292 291 292 293 294 294 293 293 294 294 295
213 211 206 202 201 201 203 205 206 206 202 196 196 199 202 205 206 205 205 207 210 217 224 225 221 220 226 231 235 237 235 234 235 236 236 238 240 243 248 253 256 259 260 262 266 269 271 270 268 267 267 267 267 268 269 271 272 274 275 276 277 279 280 281 283 285 286 287 287 287 288 289 290 290 290 290 292 294 294 294 294 294 296 296 296
214 215 213 209 207 207 208 207 207 208 203 199 203 207 208 209 207 206 207 209 213 218 224 224 222 224 230 234 240 242 238 236 238 239 240 242 243 244 246 250 255 258 260 262 264 267 270 273 273 272 271 270 269 269 269 270 272 273 274 275 277 279 280 281 283 284 286 286 286 286 287 288 289 288 289 291 293 295 294 294 294 295 296 297 296
215 218 219 216 213 212 211 206 204 206 202 202 210 214 212 211 209 207 208 212 216 219 222 223 223 228 235 242 246 246 242 240 243 244 246 247 247 246 246 249 254 259 261 261 264 268 271 273 273 273 272 271 270 270 270 270 272 273 274 275 277 278 279 281 283 284 285 285 284 285 286 287 286 285 288 292 293 294 293 293 294 294 295 295 296
216 219 221 220 217 215 212 206 203 203 201 204 212 216 216 214 212 210 212 214 216 219 223 225 226 231 240 246 250 251 248 247 248 250 252 252 251 249 248 252 257 262 265 266 267 270 272 272 272 271 270 269 268 269 269 270 271 272 273 275 276 278 281 282 283 283 284 283 284 285 285 284 283 286 289 291 291 292 294 294 294 294 294 294 293
217 219 220 221 220 217 212 208 204 202 201 206 212 215 216 218 216 215 216 216 216 220 224 227 229 230 236 243 247 249 251 253 253 252 253 253 254 253 252 255 258 261 266 270 271 271 270 268 267 265 265 265 265 267 268 269 270 272 274 276 278 280 282 282 282 282 283 284 285 285 283 282 284 286 288 288 288 290 293 295 294 294 294 293 292
217 219 219 220 220 217 213 209 206 203 203 208 212 213 214 219 220 220 218 217 219 224 227 230 231 227 227 231 235 236 242 249 252 252 253 254 254 254 256 257 259 261 264 267 268 268 267 266 264 262 261 260 261 263 266 268 271 273 275 278 280 281 281 279 281 283 284 284 284 283 282 282 284 285 286 286 288 290 293 294 294 293 293 292 291
218 219 219 220 220 218 214 211 208 206 207 210 213 213 214 218 221 221 219 219 223 227 229 231 230 225 223 225 227 229 235 242 245 249 255 256 254 255 256 257 259 261 263 263 262 262 263 264 263 260 258 258 259 261 264 267 269 272 275 278 280 280 280 280 281 283 283 283 283 283 282 283 284 285 286 287 289 290 292 293 292 292 291 291 291
220 221 221 220 219 219 216 212 210 209 210 213 215 216 217 218 220 221 221 222 223 224 224 224 224 223 223 223 226 229 233 238 242 243 246 252 254 253 254 256 258 258 260 260 257 257 259 260 260 259 259 260 261 263 265 267 269 272 274 277 279 281 281 281 282 281 281 281 282 283 284 284 285 284 284 286 288 290 291 292 292 292 291 291 292
225 224 223 221 220 219 216 214 213 212 213 215 217 218 219 220 221 222 223 225 225 223 221 218 215 218 222 223 226 229 232 237 242 242 243 249 256 256 253 254 255 256 257 257 255 256 257 258 259 261 263 264 265 266 268 270 272 274 276 279 281 282 282 282 281 280 280 281 282 284 285 284 284 284 284 286 289 290 291 291 291 292 292 292 293
230 228 225 224 223 221 218 216 215 215 216 218 218 219 220 221 223 225 226 226 226 224 221 218 214 216 222 226 228 231 233 236 237 238 240 248 256 259 257 255 254 255 256 256 256 256 257 259 260 262 264 266 267 268 269 271 273 275 277 278 280 280 280 279 279 279 280 281 282 283 283 282 283 284 285 286 288 289 289 289 290 291 290 291 293
234 232 228 226 226 224 221 219 218 218 218 220 220 221 221 222 223 226 228 228 228 226 223 221 220 221 223 226 230 231 231 233 234 234 238 244 249 254 258 259 257 256 257 258 258 258 258 260 262 264 266 267 269 270 271 271 273 273 275 276 276 276 275 275 276 277 278 279 280 280 280 281 283 284 284 285 287 287 288 288 289 289 289 291 293
235 234 231 228 227 225 224 223 223 222 221 222 223 223 224 225 225 225 227 229 230 230 227 224 225 228 227 227 231 235 234 235 236 237 241 247 251 255 260 262 261 260 259 260 260 260 259 260 261 263 265 267 269 270 271 272 273 274 274 274 274 273 273 274 276 276 277 278 279 280 280 281 282 282 283 285 286 287 288 288 288 289 290 291 291
236 234 233 231 228 226 226 227 227 227 225 225 226 226 227 228 228 227 227 228 230 232 230 227 227 231 232 230 232 237 239 241 241 242 244 249 255 258 260 262 262 262 261 260 261 261 260 260 260 261 263 265 267 269 270 272 273 274 274 273 273 273 273 274 274 275 276 277 277 278 279 279 280 281 283 285 286 287 288 288 288 288 289 289 290
237 235 234 233 231 228 228 229 231 231 230 229 230 231 230 231 232 231 229 227 228 230 230 228 228 231 235 236 236 237 239 242 244 245 246 247 252 257 258 259 260 259 258 258 258 258 259 259 260 261 262 264 266 267 269 271 272 272 272 272 273 274 274 273 273 274 275 275 276 276 277 279 280 281 283 284 285 285 285 286 287 288 289 289 290
237 237 236 235 234 232 230 230 232 233 234 233 233 234 234 234 234 234 232 229 228 227 228 228 228 230 234 239 240 239 239 239 241 244 244 245 249 254 256 256 257 257 257 256 255 256 258 259 260 261 262 263 265 267 268 270 271 272 272 272 273 274 274 274 274 274 274 275 275 277 278 279 280 280 281 282 283 283 285 286 287 288 289 289 290
238 239 238 238 237 236 235 234 233 234 235 235 235 236 236 236 236 235 234 233 230 228 227 228 228 230 233 237 240 241 241 240 240 242 243 244 246 250 252 253 254 255 255 256 257 258 260 261 262 262 263 264 265 266 267 269 270 271 272 272 273 273 274 275 275 275 275 275 276 278 279 280 281 281 282 283 283 285 287 288 288 288 288 288 288
237 239 240 241 241 239 238 237 237 236 236 237 236 237 237 238 237 236 235 235 233 230 229 228 229 230 233 235 237 239 241 241 241 241 242 243 245 247 248 250 252 253 254 257 260 261 262 263 264 264 264 265 265 266 267 268 269 270 271 272 272 273 274 274 275 275 276 277 277 278 279 280 282 283 284 286 287 287 288 288 287 286 285 285 284
236 239 241 242 243 242 241 240 238 238 238 238 237 237 237 238 238 237 235 235 235 233 231 230 230 231 233 234 236 237 239 240 240 241 241 242 243 244 246 247 250 252 254 256 259 261 263 265 267 268 267 267 267 267 267 268 268 269 270 271 272 273 274 275 276 276 277 277 277 278 279 281 283 285 286 287 287 286 285 285 284 282 282 281 281
239 241 243 244 244 245 245 243 241 239 240 240 239 238 238 238 239 238 237 236 236 235 233 232 232 232 233 234 235 237 238 239 240 240 240 240 241 241 243 245 248 251 254 256 258 260 262 265 267 270 270 269 267 267 267 267 267 268 268 269 271 272 273 274 275 276 277 278 278 279 281 282 283 284 284 284 283 282 282 281 280 280 280 281 282
247 246 247 248 249 249 250 249 246 243 241 241 241 241 240 240 240 240 239 237 236 236 236 234 234 234 234 235 236 237 238 240 240 240 240 240 241 242 243 245 248 251 253 255 257 258 260 262 263 265 267 268 267 267 266 267 267 267 268 268 269 270 271 273 274 275 276 277 278 279 280 281 281 281 281 280 280 280 279 279 280 280 281 282 283
251 251 251 252 253 254 254 252 250 248 246 244 244 243 243 242 242 242 241 240 239 238 238 237 236 235 235 235 236 237 239 240 241 241 240 239 241 243 245 247 248 250 252 254 255 256 258 259 260 261 263 265 266 267 268 268 269 269 268 268 269 270 271 273 274 275 276 277 277 278 278 278 279 279 279 279 279 279 280 280 280 281 281 282 282
252 253 254 255 256 256 255 253 253 253 252 249 248 247 246 244 243 243 243 243 242 241 240 240 238 237 236 236 236 237 239 240 241 241 241 240 240 242 245 247 249 251 252 253 254 255 257 258 259 261 262 264 266 268 269 270 270 271 271 271 272 273 273 274 275 275 276 276 276 276 277 277 277 278 278 279 279 279 280 280 280 280 281 281 282
253 254 255 256 257 257 256 254 255 256 255 253 251 251 250 248 246 245 244 244 244 243 243 243 242 240 239 238 238 238 239 240 242 243 242 242 241 242 244 247 249 251 253 254 254 255 257 258 260 261 263 264 266 268 269 271 272 273 273 274 275 275 275 275 275 275 275 275 275 275 275 275 276 276 277 277 278 278 278 279 280 280 281 282 283
255 255 255 257 258 258 256 255 255 257 257 255 253 251 251 251 250 249 246 245 244 244 244 244 244 244 242 241 240 241 241 241 242 243 244 244 244 244 244 246 247 250 252 254 255 257 258 259 260 262 263 264 265 267 269 270 271 272 273 273 274 274 274 274 273 273 273 273 273 273 273 274 274 275 276 276 277 278 279 279 280 282 283 284 285
255 255 255 256 257 257 257 257 257 258 258 257 254 251 250 250 251 251 250 247 246 245 245 245 244 245 244 243 242 242 242 243 243 244 245 246 246 246 246 246 247 248 250 252 253 255 257 258 260 261 262 264 265 266 267 268 269 270 271 271 271 271 271 271 271 271 271 271 271 272 273 274 274 275 276 277 278 279 280 281 282 283 284 285 287
255 255 254 255 255 257 258 260 261 261 260 259 257 253 250 248 249 251 251 250 248 247 247 246 245 245 245 245 244 243 243 244 244 245 246 247 248 248 248 248 249 249 250 251 252 253 254 256 257 259 260 261 263 264 264 265 266 267 267 268 269 269 269 269 270 270 270 271 272 272 273 274 275 276 277 278 279 280 281 282 283 284 286 287 288
254 255 254 254 255 257 259 261 262 262 261 260 259 256 252 249 248 248 250 250 249 248 247 247 247 247 247 246 245 245 244 244 245 245 246 247 248 249 250 251 251 251 252 252 253 254 255 256 256 257 258 259 260 260 261 262 263 264 265 266 266 267 267 268 269 269 270 271 272 273 274 275 275 276 277 279 280 281 283 284 285 286 287 288 288
251 253 254 255 256 258 259 261 262 262 261 260 259 258 255 252 249 248 248 248 248 248 248 247 248 249 249 249 248 247 247 246 246 246 247 247 248 250 251 252 253 253 254 254 255 256 256 257 258 258 259 259 260 260 261 261 262 263 264 265 266 266 267 267 268 269 270 271 272 273 274 275 276 278 279 280 282 283 284 285 286 287 287 288 289
250 251 253 254 256 257 258 259 260 261 261 260 260 259 258 256 252 249 247 247 247 247 248 247 247 248 249 250 250 250 250 249 249 249 249 249 250 250 251 252 253 254 255 256 256 257 257 258 259 260 260 261 261 262 262 263 263 264 265 265 266 267 267 268 269 270 271 272 273 274 275 276 278 279 280 282 282 283 284 285 286 287 288 289 289